When you browse on this site, cookies collect data to enhance your experience and personalize the content and advertising you see.
Visit our Privacy Policy to learn more. By continuing to use the site, you agree to this use of cookies and data.
  • In Netherlands
  • List of Countries
  • For 7 days
  • Water Temperature
  • Satellite Maps
  • Weather Map
  • Weather Widgets
  • user-avatar
    Login

    Hourly Weather Barneveld

    Today, 18 November, Sunday

    Time Temperature Precipitation Wind Pressure Humidity
    00:00 0°C° 0 mm 4 mps 772 mmHg 73%
    01:00 0°C° 0 mm 4 mps 772 mmHg 73%
    02:00 0°C° 0 mm 4 mps 772 mmHg 72%
    03:00 -1°C° 0 mm 4 mps 772 mmHg 72%
    04:00 -1°C° 0 mm 4 mps 772 mmHg 71%
    05:00 -1°C° 0 mm 4 mps 772 mmHg 70%
    06:00 -2°C° 0 mm 4 mps 772 mmHg 72%
    07:00 -1°C° 0 mm 4 mps 772 mmHg 67%
    08:00 -1°C° 0 mm 5 mps 772 mmHg 62%
    09:00 0°C° 0 mm 5 mps 772 mmHg 57%
    10:00 +1°C° 0 mm 5 mps 772 mmHg 52%
    11:00 +3°C° 0 mm 5 mps 771 mmHg 47%
    12:00 +5°C° 0 mm 5 mps 771 mmHg 42%
    13:00 +5°C° 0 mm 5 mps 771 mmHg 43%
    14:00 +3°C° 0 mm 5 mps 771 mmHg 43%
    15:00 +3°C° 0 mm 5 mps 770 mmHg 43%
    16:00 +2°C° 0 mm 5 mps 770 mmHg 47%
    17:00 +2°C° 0 mm 5 mps 770 mmHg 50%
    18:00 +1°C° 0 mm 5 mps 770 mmHg 54%
    19:00 +1°C° 0 mm 5 mps 770 mmHg 63%
    20:00 +1°C° 0 mm 5 mps 770 mmHg 72%
    21:00 +1°C° 0 mm 6 mps 770 mmHg 81%
    22:00 +1°C° 0 mm 5 mps 770 mmHg 83%
    23:00 +1°C° 0 mm 5 mps 769 mmHg 85%

    Tomorrow, 19 November, Monday

    Time Temperature Precipitation Wind Pressure Humidity
    00:00 +1°C° 0 mm 5 mps 769 mmHg 88%
    01:00 +2°C° 0 mm 5 mps 769 mmHg 87%
    02:00 +2°C° 0 mm 6 mps 768 mmHg 87%
    03:00 +2°C° 0 mm 6 mps 768 mmHg 86%
    04:00 +2°C° 0 mm 6 mps 768 mmHg 85%
    05:00 +2°C° 0 mm 6 mps 767 mmHg 84%
    06:00 +2°C° 0 mm 6 mps 767 mmHg 82%
    07:00 +3°C° 0 mm 6 mps 767 mmHg 80%
    08:00 +3°C° 0 mm 7 mps 767 mmHg 78%
    09:00 +4°C° 0 mm 7 mps 766 mmHg 75%
    10:00 +5°C° 0 mm 7 mps 766 mmHg 71%
    11:00 +5°C° 0 mm 8 mps 765 mmHg 67%
    12:00 +6°C° 0 mm 8 mps 765 mmHg 62%
    13:00 +5°C° 0.1 mm 8 mps 765 mmHg 63%
    14:00 +5°C° 0.1 mm 7 mps 764 mmHg 65%
    15:00 +4°C° 0.1 mm 7 mps 764 mmHg 66%
    16:00 +4°C° 0 mm 7 mps 764 mmHg 67%
    17:00 +3°C° 0 mm 7 mps 763 mmHg 68%
    18:00 +2°C° 0 mm 7 mps 763 mmHg 69%
    19:00 +2°C° 0 mm 7 mps 763 mmHg 69%
    20:00 +2°C° 0 mm 7 mps 763 mmHg 70%
    21:00 +2°C° 0 mm 7 mps 762 mmHg 71%
    22:00 0°C° 0 mm 7 mps 762 mmHg 72%
    23:00 0°C° 0 mm 7 mps 762 mmHg 73%

    Day after tomorrow, 20 November, Tuesday

    Time Temperature Precipitation Wind Pressure Humidity
    00:00 0°C° 0 mm 7 mps 762 mmHg 74%
    01:00 0°C° 0 mm 8 mps 761 mmHg 72%
    02:00 0°C° 0 mm 8 mps 761 mmHg 70%
    03:00 0°C° 0 mm 8 mps 760 mmHg 68%
    04:00 0°C° 0 mm 8 mps 760 mmHg 67%
    05:00 0°C° 0 mm 8 mps 760 mmHg 67%
    06:00 0°C° 0 mm 8 mps 759 mmHg 67%
    07:00 0°C° 0 mm 9 mps 759 mmHg 66%
    08:00 0°C° 0 mm 9 mps 759 mmHg 66%
    09:00 0°C° 0 mm 9 mps 758 mmHg 65%
    10:00 +1°C° 0 mm 9 mps 758 mmHg 64%
    11:00 +1°C° 0 mm 9 mps 758 mmHg 63%
    12:00 +1°C° 0 mm 9 mps 757 mmHg 61%
    13:00 +1°C° 0.1 mm 8 mps 757 mmHg 64%
    14:00 +1°C° 0.1 mm 8 mps 757 mmHg 67%
    15:00 0°C° 0.1 mm 8 mps 756 mmHg 69%
    16:00 0°C° 0.4 mm 8 mps 756 mmHg 74%
    17:00 -1°C° 0.4 mm 7 mps 756 mmHg 78%
    18:00 -1°C° 0.4 mm 7 mps 756 mmHg 82%
    19:00 -1°C° 0.3 mm 7 mps 757 mmHg 83%
    20:00 -1°C° 0.3 mm 6 mps 757 mmHg 83%
    21:00 -1°C° 0.3 mm 6 mps 757 mmHg 84%
    22:00 -2°C° 0.1 mm 6 mps 757 mmHg 86%
    23:00 -2°C° 0.1 mm 6 mps 757 mmHg 88%

    21 November, Wednesday

    Time Temperature Precipitation Wind Pressure Humidity
    00:00 -1°C° 0.1 mm 5 mps 757 mmHg 89%
    01:00 -1°C° 0 mm 5 mps 757 mmHg 90%
    02:00 -2°C° 0 mm 5 mps 757 mmHg 91%
    03:00 -2°C° 0 mm 5 mps 757 mmHg 92%
    04:00 -2°C° 0 mm 5 mps 757 mmHg 93%
    05:00 -2°C° 0 mm 5 mps 757 mmHg 93%
    06:00 -2°C° 0 mm 5 mps 757 mmHg 93%
    07:00 -2°C° 0 mm 5 mps 758 mmHg 91%
    08:00 -1°C° 0 mm 5 mps 758 mmHg 89%
    09:00 0°C° 0 mm 5 mps 759 mmHg 87%
    10:00 0°C° 0 mm 5 mps 759 mmHg 85%
    11:00 +1°C° 0 mm 5 mps 759 mmHg 83%
    12:00 +2°C° 0 mm 5 mps 759 mmHg 81%
    13:00 +2°C° 0 mm 5 mps 759 mmHg 83%
    14:00 +2°C° 0 mm 5 mps 759 mmHg 84%
    15:00 +1°C° 0 mm 5 mps 760 mmHg 86%
    16:00 +1°C° 0 mm 5 mps 760 mmHg 88%
    17:00 +1°C° 0 mm 5 mps 760 mmHg 90%
    18:00 0°C° 0 mm 5 mps 761 mmHg 92%
    19:00 0°C° 0 mm 5 mps 761 mmHg 91%
    20:00 +1°C° 0 mm 5 mps 761 mmHg 90%
    21:00 +1°C° 0 mm 5 mps 762 mmHg 88%
    22:00 +1°C° 0 mm 5 mps 762 mmHg 89%
    23:00 +1°C° 0 mm 4 mps 762 mmHg 90%

    22 November, Thursday

    Time Temperature Precipitation Wind Pressure Humidity
    00:00 +1°C° 0 mm 4 mps 762 mmHg 90%
    01:00 +1°C° 0 mm 4 mps 762 mmHg 91%
    02:00 +1°C° 0 mm 4 mps 762 mmHg 92%
    03:00 +1°C° 0 mm 4 mps 762 mmHg 92%
    04:00 +1°C° 0 mm 4 mps 762 mmHg 92%
    05:00 +1°C° 0 mm 4 mps 762 mmHg 93%
    06:00 +1°C° 0 mm 4 mps 762 mmHg 93%
    07:00 +3°C° 0 mm 4 mps 762 mmHg 92%
    08:00 +3°C° 0 mm 4 mps 763 mmHg 90%
    09:00 +3°C° 0 mm 4 mps 763 mmHg 89%
    10:00 +4°C° 0 mm 4 mps 763 mmHg 86%
    11:00 +5°C° 0 mm 3 mps 763 mmHg 83%
    12:00 +5°C° 0 mm 3 mps 763 mmHg 79%
    13:00 +5°C° 0 mm 3 mps 763 mmHg 81%
    14:00 +5°C° 0 mm 3 mps 763 mmHg 83%
    15:00 +5°C° 0 mm 2 mps 764 mmHg 84%
    16:00 +5°C° 0 mm 2 mps 764 mmHg 87%
    17:00 +4°C° 0 mm 2 mps 764 mmHg 89%
    18:00 +3°C° 0 mm 2 mps 764 mmHg 91%
    19:00 +3°C° 0 mm 2 mps 765 mmHg 92%
    20:00 +3°C° 0 mm 2 mps 765 mmHg 92%
    21:00 +2°C° 0 mm 2 mps 765 mmHg 93%
    22:00 +2°C° 0 mm 2 mps 765 mmHg 93%
    23:00 +2°C° 0 mm 2 mps 766 mmHg 93%

    23 November, Friday

    Time Temperature Precipitation Wind Pressure Humidity
    00:00 +2°C° 0 mm 2 mps 766 mmHg 93%
    01:00 +2°C° 0 mm 2 mps 766 mmHg 93%
    02:00 +2°C° 0 mm 2 mps 766 mmHg 94%
    03:00 +1°C° 0 mm 2 mps 766 mmHg 94%
    04:00 +1°C° 0 mm 2 mps 766 mmHg 94%
    05:00 +1°C° 0 mm 2 mps 766 mmHg 94%
    06:00 +1°C° 0 mm 2 mps 766 mmHg 94%
    07:00 +2°C° 0 mm 2 mps 766 mmHg 92%
    08:00 +2°C° 0 mm 2 mps 766 mmHg 89%
    09:00 +3°C° 0 mm 2 mps 767 mmHg 87%
    10:00 +4°C° 0 mm 2 mps 766 mmHg 83%
    11:00 +5°C° 0 mm 2 mps 766 mmHg 79%
    12:00 +7°C° 0 mm 2 mps 766 mmHg 75%
    13:00 +6°C° 0 mm 2 mps 766 mmHg 79%
    14:00 +6°C° 0 mm 2 mps 766 mmHg 82%
    15:00 +5°C° 0 mm 2 mps 766 mmHg 86%
    16:00 +4°C° 0 mm 2 mps 766 mmHg 88%
    17:00 +4°C° 0 mm 2 mps 766 mmHg 89%
    18:00 +3°C° 0 mm 2 mps 766 mmHg 91%
    19:00 +3°C° 0 mm 2 mps 765 mmHg 91%
    20:00 +3°C° 0 mm 2 mps 765 mmHg 92%
    21:00 +2°C° 0 mm 2 mps 765 mmHg 92%
    22:00 +2°C° 0 mm 2 mps 765 mmHg 92%
    23:00 +2°C° 0 mm 2 mps 765 mmHg 92%
    Show more